Lakenheath RAF, United Kingdom

12:09 AM BST on May 01, 2017 (GMT +0100)
Lakenheath Air Base

Weather History for EGUL - January, 2013

Change the Weather History Date:

Wednesday, January 23, 2013

  Actual Average Record
Temperature  
Mean Temperature 32 °F -  
Max Temperature 34 °F - - ()
Min Temperature 31 °F - - ()
Degree Days  
Heating Degree Days 32    
Moisture  
Dew Point 29 °F    
Average Humidity 86    
Maximum Humidity 100    
Minimum Humidity 79    
Precipitation  
Precipitation 0.00 in - - ()
Sea Level Pressure  
Sea Level Pressure 29.80 in    
Wind  
Wind Speed 7 mph ()    
Max Wind Speed 10 mph    
Max Gust Speed -    
Visibility 6.2 miles    
Events      
T = Trace of Precipitation, MM = Missing Value Source: Averaged Metar Reports

Daily Weather History Graph

Daily Weather History Graph

Search for Another Location

Airport or City:

Trip Planner

Search our weather history database for the weather conditions in past years. The results will help you decide how hot, cold, wet, or windy it might be!

Date:

Astronomy

Jan. 23, 2013 Rise Set
Actual Time 7:51 AM GMT 4:27 PM GMT
Civil Twilight 7:13 AM GMT 5:06 PM GMT
Nautical Twilight 6:31 AM GMT 5:48 PM GMT
Astronomical Twilight 5:51 AM GMT 6:28 PM GMT
Moon 1:19 PM GMT (1/23) 4:58 AM GMT (1/23)
Length of Visible Light 9h 52m
Length of Day
8h 36m
Waxing Gibbous, 88% of the Moon is Illuminated
Jan 23
Waxing Gibbous
Jan 27
Full
Feb 3
Last Quarter
Feb 10
New
Feb 17
First Quarter

Hourly Weather History & Observations

Time (GMT) Temp. Windchill Dew Point Humidity Pressure Visibility Wind Dir Wind Speed Gust Speed Precip Events Conditions
12:13 AM 32.0 °F 24.8 °F 32.0 °F 100% 29.75 in 6.2 mi NE 8.1 mph - N/A   Overcast
12:28 AM 32.0 °F 24.8 °F 32.0 °F 100% 29.75 in 6.2 mi ENE 8.1 mph - N/A   Overcast
12:31 AM 32.0 °F 24.8 °F 32.0 °F 100% 29.75 in 6.2 mi NE 8.1 mph - N/A   Overcast
12:58 AM 33.1 °F 26.9 °F 30.2 °F 89% 29.76 in 6.2 mi ENE 6.9 mph - N/A   Overcast
1:58 AM 32.9 °F 27.5 °F 29.7 °F 88% 29.77 in 6.2 mi ENE 5.8 mph - N/A   Overcast
2:58 AM 32.2 °F 26.7 °F 29.5 °F 90% 29.78 in 6.2 mi ENE 5.8 mph - N/A   Overcast
3:58 AM 32.2 °F 25.8 °F 28.8 °F 87% 29.77 in 6.2 mi NE 6.9 mph - N/A   Overcast
4:58 AM 32.2 °F 26.7 °F 28.4 °F 86% 29.78 in 6.2 mi ENE 5.8 mph - N/A   Overcast
5:58 AM 32.0 °F 25.6 °F 27.9 °F 85% 29.78 in 6.2 mi NE 6.9 mph - N/A   Overcast
6:58 AM 31.8 °F 24.6 °F 27.0 °F 82% 29.79 in 6.2 mi NE 8.1 mph - N/A   Overcast
7:58 AM 32.0 °F 25.6 °F 27.1 °F 82% 29.81 in 6.2 mi NE 6.9 mph - N/A   Overcast
8:40 AM 32.0 °F 25.6 °F 26.6 °F 80% 29.80 in 6.2 mi NNE 6.9 mph - N/A   Overcast
8:58 AM 32.2 °F 24.4 °F 27.5 °F 83% 29.81 in 6.2 mi NNE 9.2 mph - N/A   Overcast
9:58 AM 32.5 °F 26.2 °F 27.9 °F 83% 29.82 in 6.2 mi NNE 6.9 mph - N/A   Overcast
10:10 AM 32.0 °F 24.8 °F 28.4 °F 87% 29.81 in 6.2 mi NNE 8.1 mph - N/A   Overcast
10:31 AM 32.0 °F 24.8 °F 28.4 °F 87% 29.81 in 6.2 mi NE 8.1 mph - N/A   Overcast
10:55 AM 33.3 °F 25.7 °F 28.2 °F 82% 29.81 in 6.2 mi NE 9.2 mph - N/A   Overcast
11:58 AM 33.4 °F 26.6 °F 28.2 °F 81% 29.81 in 6.2 mi ENE 8.1 mph - N/A   Overcast
12:58 PM 34.0 °F 26.6 °F 28.0 °F 79% 29.81 in 6.2 mi ENE 9.2 mph - N/A   Overcast
1:45 PM 33.8 °F 26.4 °F 28.4 °F 81% 29.79 in 6.2 mi ENE 9.2 mph - N/A   Light Drizzle
1:55 PM 34.2 °F 26.8 °F 28.9 °F 81% 29.81 in 6.2 mi East 9.2 mph - N/A   Overcast
2:58 PM 34.0 °F 26.0 °F 29.1 °F 82% 29.81 in 6.2 mi ENE 10.4 mph - N/A   Overcast
3:58 PM 33.4 °F 26.6 °F 29.1 °F 84% 29.81 in 6.2 mi ENE 8.1 mph - N/A   Overcast
4:58 PM 32.9 °F 25.3 °F 29.1 °F 86% 29.81 in 6.2 mi ENE 9.2 mph - N/A   Overcast
5:56 PM 32.0 °F 24.8 °F 28.4 °F 87% 29.80 in 6.2 mi NE 8.1 mph - N/A   Overcast
5:58 PM 32.7 °F 25.7 °F 29.1 °F 87% 29.81 in 6.2 mi NE 8.1 mph - N/A   Overcast
6:07 PM 32.0 °F 24.8 °F 28.4 °F 87% 29.80 in 6.2 mi ENE 8.1 mph - N/A   Overcast
6:58 PM 32.9 °F 25.3 °F 29.1 °F 86% 29.81 in 6.2 mi ENE 9.2 mph - N/A   Overcast
7:58 PM 33.1 °F 26.9 °F 28.6 °F 84% 29.82 in 6.2 mi NE 6.9 mph - N/A   Overcast
8:58 PM 32.7 °F 25.0 °F 28.6 °F 85% 29.84 in 6.2 mi NE 9.2 mph - N/A   Overcast
9:58 PM 32.9 °F 26.7 °F 28.4 °F 84% 29.86 in 6.2 mi ENE 6.9 mph - N/A   Overcast
10:58 PM 33.3 °F 25.1 °F 28.4 °F 82% 29.86 in 6.2 mi ENE 10.4 mph - N/A   Overcast
11:58 PM 33.1 °F 26.9 °F 28.2 °F 82% 29.86 in 6.2 mi ENE 6.9 mph - N/A   Overcast